This demonstration page uses our WeatherBlox Daily Observations layout. Learn more.

Left ArrowRight Arrow

40.92945, -100.16068

Hourly Observations for September 14, 2017

Temp ( °F °C ) Dew Point ( °F °C ) Humidity (%) Winds ( mph kmh ) Pressure ( in mb ) Visibility ( mi km ) Precip ( " mm )
12:15 am 00:15 Clear 64 18 56 13.6 76 76 Calm 29.62 1003 10 16 0.00 0.00
12:35 am 00:35 Clear 65 18.3 56 13.3 73 73 SE 3 6 29.62 1003 10 16 0.00 0.00
12:55 am 00:55 Clear 65 18.3 56 13.3 73 73 ESE 5 7 29.62 1003 10 16 0.00 0.00
1:15 am 01:15 Clear 63 17.4 56 13.3 77 77 SSE 7 11 29.62 1003 10 16 0.00 0.00
1:35 am 01:35 Clear 64 17.5 56 13.2 76 76 SSE 8 13 29.62 1003 10 16 0.00 0.00
1:55 am 01:55 Clear 64 17.8 56 13.1 74 74 SE 8 13 29.62 1003 10 16 0.00 0.00
2:15 am 02:15 Clear 65 18.1 55 12.8 71 71 SE 8 13 29.62 1003 10 16 0.00 0.00
2:35 am 02:35 Clear 63 17.4 55 12.8 75 75 SSE 6 9 29.62 1003 10 16 0.00 0.00
2:55 am 02:55 Clear 62 16.4 55 12.6 78 78 S 6 9 29.65 1004 10 16 0.00 0.00
3:15 am 03:15 Clear 63 17.1 55 12.6 75 75 S 8 13 29.62 1003 10 16 0.00 0.00
3:35 am 03:35 Clear 64 17.5 55 12.5 73 73 S 5 7 29.62 1003 10 16 0.00 0.00
3:55 am 03:55 Clear 60 15.6 54 12.3 81 81 SSW 6 9 29.65 1004 10 16 0.00 0.00
4:15 am 04:15 Clear 61 16.3 54 12.1 76 76 S 5 7 29.65 1004 10 16 0.00 0.00
4:35 am 04:35 Clear 60 15.7 53 11.9 78 78 S 5 7 29.65 1004 10 16 0.00 0.00
4:55 am 04:55 Clear 60 15.3 53 11.7 79 79 S 5 7 29.65 1004 10 16 0.00 0.00
5:15 am 05:15 Clear 61 16.2 54 12 76 76 SW 3 6 29.65 1004 10 16 0.00 0.00
5:35 am 05:35 Clear 61 16 53 11.6 75 75 S 5 7 29.65 1004 10 16 0.00 0.00
5:55 am 05:55 Clear 61 15.9 53 11.6 76 76 SSW 5 7 29.65 1004 10 16 0.00 0.00
6:15 am 06:15 Clear 59 14.8 53 11.5 81 81 Calm 29.65 1004 10 16 0.00 0.00
6:35 am 06:35 Clear 58 14.6 52 11.3 81 81 S 6 9 29.65 1004 10 16 0.00 0.00
6:55 am 06:55 Clear 59 15.1 53 11.6 80 80 Calm 29.65 1004 10 16 0.00 0.00
7:15 am 07:15 Clear 58 14.6 52 11.3 81 81 Calm 29.65 1004 10 16 0.00 0.00
7:35 am 07:35 Sunny 58 14.2 53 11.5 84 84 W 5 7 29.68 1005 10 16 0.00 0.00
7:55 am 07:55 Sunny 57 14 53 11.5 85 85 Calm 29.68 1005 10 16 0.00 0.00
8:15 am 08:15 Sunny 57 13.9 54 12.3 90 90 Calm 29.68 1005 10 16 0.00 0.00
8:35 am 08:35 Sunny 61 16.1 56 13.6 85 85 Calm 29.68 1005 10 16 0.00 0.00
8:55 am 08:55 Sunny 66 18.9 57 14 73 73 SW 3 6 29.65 1004 10 16 0.00 0.00
9:15 am 09:15 Sunny 69 20.6 58 14.7 69 69 SW 3 6 29.62 1003 10 16 0.00 0.00
9:35 am 09:35 Mostly Cloudy with Haze 71 21.8 58 14.2 62 62 Calm 29.62 1003 1 2 0.00 0.00
9:55 am 09:55 Sunny 77 25.1 56 13.6 49 49 SW 5 7 29.59 1002 10 16 0.00 0.00
10:15 am 10:15 Sunny 76 24.4 58 14.3 53 53 Calm 29.59 1002 10 16 0.00 0.00
10:35 am 10:35 Sunny 76 24.4 58 14.2 53 53 SSW 3 6 29.59 1002 10 16 0.00 0.00
10:55 am 10:55 undefined N/A N/A N/A undefined N/A N/A N/A 0.00 0.00
11:15 am 11:15 Sunny with Thunderstorms 80 26.8 57 13.9 45 45 S 3 6 29.59 1002 N/A 0.00 0.00
11:35 am 11:35 Sunny 81 27 56 13.4 43 43 SSW 5 7 29.59 1002 10 16 0.00 0.00
11:55 am 11:55 Sunny 82 27.7 58 14.6 45 45 S 8 13 29.59 1002 10 16 0.00 0.00
12:15 pm 12:15 Sunny 85 29.3 56 13.4 38 38 S 8 13 29.56 1001 10 16 0.00 0.00
12:35 pm 12:35 Sunny 87 30.6 56 13.1 34 34 S 9 15 29.56 1001 10 16 0.00 0.00
12:55 pm 12:55 Sunny 89 31.5 54 12 30 30 S 9 15 29.53 1000 10 16 0.00 0.00
1:15 pm 13:15 Sunny 89 31.7 55 12.7 31 31 S 10 17 29.53 1000 10 16 0.00 0.00
1:35 pm 13:35 Sunny 90 32.2 55 12.7 30 30 S 8 13 29.53 1000 10 16 0.00 0.00
1:55 pm 13:55 Sunny 92 33.2 56 13.4 30 30 S 9 15 29.53 1000 10 16 0.00 0.00
2:15 pm 14:15 Sunny 92 33.3 54 12.4 28 28 S 9 15 29.53 1000 10 16 0.00 0.00
2:35 pm 14:35 Sunny 91 32.5 53 11.9 28 28 SSW 8 13 29.50 999 10 16 0.00 0.00
2:55 pm 14:55 Sunny 92 33.1 56 13.6 31 31 S 9 15 29.50 999 10 16 0.00 0.00
3:15 pm 15:15 Sunny 95 34.8 54 12.2 25 25 SSW 8 13 29.50 999 10 16 0.00 0.00
3:35 pm 15:35 Sunny 94 34.3 52 11.2 24 24 SSW 9 15 29.50 999 10 16 0.00 0.00
3:55 pm 15:55 Sunny 95 35.2 52 11 23 23 S 10 17 29.47 998 10 16 0.00 0.00
4:15 pm 16:15 Sunny 96 35.5 51 10.4 22 22 S 12 19 29.47 998 10 16 0.00 0.00
4:35 pm 16:35 Sunny 93 34 51 10.3 23 23 SSW 9 15 29.50 999 10 16 0.00 0.00
4:55 pm 16:55 Sunny 91 32.6 56 13.5 31 31 S 5 7 29.50 999 7 11 0.00 0.00
5:15 pm 17:15 Hazy 94 34.7 54 12.1 25 25 SSE 7 11 29.50 999 4 6 0.00 0.00
5:35 pm 17:35 Hazy 95 35.1 51 10.7 23 23 S 9 15 29.47 998 5 8 0.00 0.00
5:55 pm 17:55 Sunny 94 34.7 54 12.4 26 26 SSE 10 17 29.50 999 10 16 0.00 0.00
6:15 pm 18:15 Sunny 93 34.1 55 12.5 27 27 SSE 8 13 29.50 999 10 16 0.00 0.00
6:35 pm 18:35 Sunny 92 33.5 55 13 29 29 SSE 8 13 29.50 999 10 16 0.00 0.00
6:55 pm 18:55 Sunny 90 32.3 56 13.3 31 31 SSE 7 11 29.50 999 10 16 0.00 0.00
7:15 pm 19:15 Sunny 89 31.4 56 13.3 33 33 ESE 6 9 29.50 999 10 16 0.00 0.00
7:35 pm 19:35 Sunny 85 29.7 58 14.6 40 40 SE 6 9 29.53 1000 10 16 0.00 0.00
7:55 pm 19:55 Clear 80 26.8 60 15.6 50 50 ESE 5 7 29.56 1001 10 16 0.00 0.00
8:15 pm 20:15 Clear 81 27 60 15.7 50 50 ESE 7 11 29.56 1001 10 16 0.00 0.00
8:35 pm 20:35 Clear 80 26.8 60 15.7 51 51 ESE 5 7 29.56 1001 10 16 0.00 0.00
8:55 pm 20:55 Clear 74 23.4 63 17.2 68 68 ENE 6 9 29.59 1002 10 16 0.00 0.00
9:15 pm 21:15 Clear 73 22.9 63 17 69 69 ESE 3 6 29.59 1002 10 16 0.00 0.00
9:35 pm 21:35 Clear 75 23.7 62 16.6 65 65 E 5 7 29.59 1002 10 16 0.00 0.00
9:55 pm 21:55 Clear 73 22.5 61 16.2 68 68 ESE 5 7 29.59 1002 10 16 0.00 0.00
10:15 pm 22:15 Mostly Cloudy 76 24.6 61 16.1 59 59 ESE 7 11 29.56 1001 10 16 0.00 0.00
10:35 pm 22:35 Partly Cloudy 76 24.7 60 15.7 57 57 ESE 8 13 29.56 1001 10 16 0.00 0.00
10:55 pm 22:55 Mostly Cloudy 77 25 58 14.7 53 53 SE 9 15 29.56 1001 10 16 0.00 0.00
11:15 pm 23:15 Partly Cloudy 77 25 57 13.7 50 50 SSE 9 15 29.56 1001 10 16 0.00 0.00
11:35 pm 23:35 Partly Cloudy 77 24.8 56 13.5 50 50 SSE 8 13 29.56 1001 10 16 0.00 0.00
11:55 pm 23:55 Clear 76 24.4 56 13.6 51 51 SE 7 11 29.56 1001 10 16 0.00 0.00

Powered by AerisWeather